Terug naar catalogus

QZS-2

ActiefNavigatieMEO
NORAD 42738·PAYLOAD·🇯🇵 Japan

Gelanceerd Jun 1, 2017 vanaf Tanegashima Space Center

Loading…

Volgende Passages (komende 24 uur)

TLE

VersSource: CelesTrak SupGP

Epoch: Sep 13, 2026, 00:00 UTC

1 42738C 17028A   26256.00000000 -.00000134  00000+0  00000+0 0  2566
2 42738  39.3021 241.8598 0750652 270.4509 341.2077  1.00261749    18

Volg QZS-2 in realtime met AllMySat

Download on the App Store